Regional Weather Roundup
Issued by NWS

Home | Current Version | Previous Version | Text Only | Print | Product List | Glossary On
Versions: 1 2 3 4 5 6 7 8 9 10 11 12 13 14 15 16 17 18 19 20 21 22 23 24 25 26 27 28 29 30 31 32 33 34 35 36 37 38 39 40 41 42 43 44 45 46 47 48 49 50
000
ASUS45 KABQ 301610
RWRNM
WEATHER ROUNDUP FOR NEW MEXICO
NATIONAL WEATHER SERVICE ALBUQUERQUE NM
1000 AM MDT TUE SEP 30 2014

NOTE: "FAIR" MEANS FEW OR NO CLOUDS BELOW 12,000 FEET AGL WITH NO
       SIGNIFICANT WEATHER OR OBSTRUCTIONS TO VISION.

      THIS PRODUCT IS RELEASED AS TWO VERSIONS.  ONE VERSION NEAR
      THE TOP OF THE HOUR CONTAINING PRELIMINARY DATA FROM ALBUQUERQUE
      AND OTHER STATIONS.  A FINAL VERSION WITH ADDITIONAL DATA IS
      ISSUED ABOUT 10 MINUTES AFTER THE HOUR.

NMZ501-503-504-510>518-301700-
NORTHWEST PLATEAU/NORTHCENTRAL MOUNTAINS

CITY           SKY/WX    TMP DP  RH WIND       PRES   REMARKS
FARMINGTON     SUNNY     51  42  71 E7        30.05F
LOS ALAMOS     SUNNY     50  34  53 E5        30.09F
SANTA FE       SUNNY     58  32  37 N12       30.06S
TAOS           SUNNY     46  36  66 S3        30.09F
ANGEL FIRE     FAIR      47  27  45 W15G22    30.11R

$$
NMZ402-403-502-505>509-301700-
WESTCENTRAL MOUNTAINS/SOUTHWEST MOUNTAINS

CITY           SKY/WX    TMP DP  RH WIND       PRES   REMARKS
GALLUP         SUNNY     49  36  61 CALM      30.11S
GRANTS         SUNNY     50  34  53 CALM      30.12S
SILVER CITY    SUNNY     66  34  30 NW7       30.08S

$$
NMZ407-409-411-412-301700-
SOUTHERN DESERTS

CITY           SKY/WX    TMP DP  RH WIND       PRES   REMARKS
LORDSBURG      FAIR      70  34  26 MISG      30.02S
DEMING         SUNNY     69  43  38 W7        30.02S
LAS CRUCES     SUNNY     71  48  44 NW5       30.03R
HOLLOMAN AFB   SUNNY     70  53  53 NW5       29.97R
ALAMOGORDO     SUNNY     72  54  53 W9        29.99R
T OR C         SUNNY     66  38  35 CALM      30.02F

$$
NMZ519>523-301700-
CENTRAL VALLEYS/CENTRAL HIGHLANDS

CITY           SKY/WX    TMP DP  RH WIND       PRES   REMARKS
ALBUQUERQUE    SUNNY     56  36  47 CALM      30.06S
DOUBLE EAGLE   SUNNY     59  34  38 W3        30.07F
MORIARTY ARPT  FAIR      62  30  29 NW12      30.06F
CLINES CORNERS SUNNY     56  32  40 NW17      30.05S
BELEN          FAIR      60  38  42 NE5       30.05S
SOCORRO        FAIR      63  39  41 N5        30.04S

$$
NMZ524>526-539-540-301700-
SOUTHCENTRAL MOUNTAINS

CITY           SKY/WX    TMP DP  RH WIND       PRES   REMARKS
RUIDOSO        NOT AVBL

$$
NMZ527>531-301700-
NORTHEAST HIGHLANDS/NORTHEAST PLAINS

CITY           SKY/WX    TMP DP  RH WIND       PRES   REMARKS
LAS VEGAS      SUNNY     57  28  33 E8        30.02S
RATON          SUNNY     56  32  40 CALM      29.96F
CLAYTON        SUNNY     67  32  27 W7        29.92R

$$
NMZ532>537-301700-
EASTCENTRAL PLAINS

CITY           SKY/WX    TMP DP  RH WIND       PRES   REMARKS
TUCUMCARI      SUNNY     68  45  43 W12       29.90S
CANNON AFB     SUNNY     70  44  38 W13       29.95S
CLOVIS AIRPORT   N/A     70  52  52 W8        29.97S

$$
NMZ028-029-538-301700-
SOUTHEAST PLAINS

CITY           SKY/WX    TMP DP  RH WIND       PRES   REMARKS
ROSWELL        SUNNY     72  47  40 NW7       29.94S
CARLSBAD       SUNNY     73  53  49 NE7       29.92F
HOBBS          SUNNY     72  63  73 S9        29.95S


$$


USA.gov is the U.S. government's official web portal to all federal, state and local government web resources and services.